Time,TemperatureF,DewpointF,PressureIn,WindDirection,WindDirectionDegrees,WindSpeedMPH,WindSpeedGustMPH,Humidity,HourlyPrecipIn,Conditions,Clouds,dailyrainin,SoftwareType,DateUTC
2013-10-04 00:00:00,77.5,73.0,30.03,ENE,74,0.0,1.0,86,0.00,,,0.00,WeatherCatV1.21B27,2013-10-04 04:00:00,
2013-10-04 00:05:00,77.5,73.0,30.03,ENE,74,0.0,1.0,86,0.00,,,0.00,WeatherCatV1.21B27,2013-10-04 04:05:00,
2013-10-04 00:10:00,77.6,73.1,30.02,ENE,74,0.0,1.0,86,0.00,,,0.00,WeatherCatV1.21B27,2013-10-04 04:10:00,
2013-10-04 00:35:00,77.7,72.8,30.03,ENE,74,0.0,1.0,85,0.00,,,0.00,WeatherCatV1.21B27,2013-10-04 04:35:00,
2013-10-04 00:38:00,77.7,72.8,30.03,ENE,74,0.0,0.0,85,0.00,,,0.00,WeatherCatV1.21B27,2013-10-04 04:38:00,
2013-10-04 00:43:00,77.7,72.8,30.03,ENE,74,0.0,0.0,85,0.00,,,0.00,WeatherCatV1.21B27,2013-10-04 04:43:00,
2013-10-04 00:44:00,77.7,72.8,30.03,ENE,74,0.0,2.0,85,0.00,,,0.00,WeatherCatV1.21B27,2013-10-04 04:44:00,
2013-10-04 00:49:00,77.7,73.2,30.03,East,82,1.0,2.0,86,0.00,,,0.00,WeatherCatV1.21B27,2013-10-04 04:49:00,
2013-10-04 00:54:00,77.7,73.2,30.03,East,94,0.0,4.0,86,0.00,,,0.00,WeatherCatV1.21B27,2013-10-04 04:54:00,
2013-10-04 00:58:00,77.7,73.2,30.03,ENE,76,0.0,4.0,86,0.00,,,0.00,WeatherCatV1.21B27,2013-10-04 04:58:00,
2013-10-04 01:00:00,77.7,73.2,30.03,ENE,78,0.0,2.0,86,0.00,,,0.00,WeatherCatV1.21B27,2013-10-04 05:00:00,
2013-10-04 01:05:00,77.5,72.6,30.03,East,82,0.0,2.0,85,0.00,,,0.00,WeatherCatV1.21B27,2013-10-04 05:05:00,
2013-10-04 01:06:00,77.5,72.6,30.03,East,82,0.0,0.0,85,0.00,,,0.00,WeatherCatV1.21B27,2013-10-04 05:06:00,
2013-10-04 01:09:00,77.5,73.0,30.03,ENE,78,2.0,2.0,86,0.00,,,0.00,WeatherCatV1.21B27,2013-10-04 05:09:00,
2013-10-04 01:10:00,77.5,72.6,30.03,ENE,78,1.0,2.0,85,0.00,,,0.00,WeatherCatV1.21B27,2013-10-04 05:10:00,
2013-10-04 01:14:00,77.5,72.6,30.03,ENE,78,0.0,2.0,85,0.00,,,0.00,WeatherCatV1.21B27,2013-10-04 05:14:00,
2013-10-04 01:17:00,77.4,72.5,30.03,ENE,78,0.0,1.0,85,0.00,,,0.00,WeatherCatV1.21B27,2013-10-04 05:17:00,
2013-10-04 01:18:00,77.4,72.5,30.02,ENE,78,0.0,0.0,85,0.00,,,0.00,WeatherCatV1.21B27,2013-10-04 05:18:00,
2013-10-04 01:24:00,77.4,72.9,30.03,ENE,78,0.0,0.0,86,0.00,,,0.00,WeatherCatV1.21B27,2013-10-04 05:24:00,
2013-10-04 01:26:00,77.3,72.8,30.03,ENE,78,0.0,0.0,86,0.00,,,0.00,WeatherCatV1.21B27,2013-10-04 05:26:00,
2013-10-04 01:29:00,77.3,72.8,30.03,ENE,78,0.0,0.0,86,0.00,,,0.00,WeatherCatV1.21B27,2013-10-04 05:29:00,
2013-10-04 01:34:00,77.2,72.7,30.02,ENE,78,0.0,1.0,86,0.00,,,0.00,WeatherCatV1.21B27,2013-10-04 05:34:00,
2013-10-04 01:39:00,77.1,72.6,30.02,ENE,78,0.0,1.0,86,0.00,,,0.00,WeatherCatV1.21B27,2013-10-04 05:39:00,
2013-10-04 01:44:00,77.0,72.5,30.02,ENE,78,0.0,1.0,86,0.00,,,0.00,WeatherCatV1.21B27,2013-10-04 05:44:00,
2013-10-04 01:49:00,76.9,72.4,30.02,ENE,78,0.0,0.0,86,0.00,,,0.00,WeatherCatV1.21B27,2013-10-04 05:49:00,
2013-10-04 01:54:00,76.9,72.4,30.02,ENE,78,0.0,1.0,86,0.00,,,0.00,WeatherCatV1.21B27,2013-10-04 05:54:00,
2013-10-04 01:59:00,76.8,72.3,30.02,ENE,78,0.0,1.0,86,0.00,,,0.00,WeatherCatV1.21B27,2013-10-04 05:59:00,
2013-10-04 02:04:00,76.8,72.3,30.02,ENE,78,0.0,2.0,86,0.00,,,0.00,WeatherCatV1.21B27,2013-10-04 06:04:00,
2013-10-04 02:09:00,76.8,72.6,30.01,ENE,78,0.0,0.0,87,0.00,,,0.00,WeatherCatV1.21B27,2013-10-04 06:09:00,
2013-10-04 02:14:00,76.8,72.6,30.02,ENE,78,0.0,0.0,87,0.00,,,0.00,WeatherCatV1.21B27,2013-10-04 06:14:00,
2013-10-04 02:19:00,76.7,72.5,30.01,ENE,78,0.0,1.0,87,0.00,,,0.00,WeatherCatV1.21B27,2013-10-04 06:19:00,
2013-10-04 02:25:00,76.7,72.5,30.01,ENE,78,0.0,1.0,87,0.00,,,0.00,WeatherCatV1.21B27,2013-10-04 06:25:00,
2013-10-04 02:30:00,76.7,72.5,30.00,ENE,78,2.0,2.0,87,0.00,,,0.00,WeatherCatV1.21B27,2013-10-04 06:30:00,
2013-10-04 02:35:00,76.6,72.4,30.01,ENE,78,0.0,2.0,87,0.00,,,0.00,WeatherCatV1.21B27,2013-10-04 06:35:00,
2013-10-04 02:40:00,76.6,72.4,30.01,ENE,78,0.0,0.0,87,0.00,,,0.00,WeatherCatV1.21B27,2013-10-04 06:40:00,
2013-10-04 02:45:00,76.5,72.3,30.00,ENE,78,0.0,0.0,87,0.00,,,0.00,WeatherCatV1.21B27,2013-10-04 06:45:00,
2013-10-04 02:50:00,76.5,72.3,30.00,ENE,78,1.0,1.0,87,0.00,,,0.00,WeatherCatV1.21B27,2013-10-04 06:50:00,
2013-10-04 02:55:00,76.5,72.3,30.00,ENE,78,0.0,1.0,87,0.00,,,0.00,WeatherCatV1.21B27,2013-10-04 06:55:00,
2013-10-04 03:00:00,76.5,72.3,30.00,ENE,78,0.0,0.0,87,0.00,,,0.00,WeatherCatV1.21B27,2013-10-04 07:00:00,
2013-10-04 03:05:00,76.4,72.2,30.00,ENE,78,0.0,0.0,87,0.00,,,0.00,WeatherCatV1.21B27,2013-10-04 07:05:00,
2013-10-04 03:10:00,76.4,72.2,30.00,ENE,78,0.0,0.0,87,0.00,,,0.00,WeatherCatV1.21B27,2013-10-04 07:10:00,
2013-10-04 03:15:00,76.4,72.6,30.00,ENE,78,0.0,0.0,88,0.00,,,0.00,WeatherCatV1.21B27,2013-10-04 07:15:00,
2013-10-04 03:20:00,76.3,72.1,30.00,ENE,78,0.0,0.0,87,0.00,,,0.00,WeatherCatV1.21B27,2013-10-04 07:20:00,
2013-10-04 03:25:00,76.2,72.4,30.00,ENE,78,0.0,1.0,88,0.00,,,0.00,WeatherCatV1.21B27,2013-10-04 07:25:00,
2013-10-04 03:30:00,76.2,72.0,30.00,ENE,78,0.0,0.0,87,0.00,,,0.00,WeatherCatV1.21B27,2013-10-04 07:30:00,
2013-10-04 03:35:00,76.2,72.4,30.00,ENE,78,0.0,1.0,88,0.00,,,0.00,WeatherCatV1.21B27,2013-10-04 07:35:00,
2013-10-04 03:40:00,76.2,72.4,30.00,ENE,78,0.0,1.0,88,0.00,,,0.00,WeatherCatV1.21B27,2013-10-04 07:40:00,
2013-10-04 03:45:00,76.1,72.3,30.00,ENE,78,0.0,0.0,88,0.00,,,0.00,WeatherCatV1.21B27,2013-10-04 07:45:00,
2013-10-04 03:50:00,76.1,72.3,30.00,East,79,0.0,4.0,88,0.00,,,0.00,WeatherCatV1.21B27,2013-10-04 07:50:00,
2013-10-04 03:55:00,76.1,72.3,30.00,East,79,0.0,1.0,88,0.00,,,0.00,WeatherCatV1.21B27,2013-10-04 07:55:00,
2013-10-04 04:00:00,76.2,72.4,30.00,East,80,1.0,1.0,88,0.00,,,0.00,WeatherCatV1.21B27,2013-10-04 08:00:00,
2013-10-04 04:05:00,76.1,72.3,30.00,ESE,106,2.0,5.0,88,0.00,,,0.00,WeatherCatV1.21B27,2013-10-04 08:05:00,
2013-10-04 04:10:00,76.2,72.4,30.00,ESE,104,1.0,3.0,88,0.00,,,0.00,WeatherCatV1.21B27,2013-10-04 08:10:00,
2013-10-04 04:15:00,76.1,72.3,30.00,ESE,104,2.0,2.0,88,0.00,,,0.00,WeatherCatV1.21B27,2013-10-04 08:15:00,
2013-10-04 04:20:00,76.1,72.3,30.00,ESE,104,0.0,1.0,88,0.00,,,0.00,WeatherCatV1.21B27,2013-10-04 08:20:00,
2013-10-04 04:25:00,76.1,72.3,30.00,East,101,2.0,2.0,88,0.00,,,0.00,WeatherCatV1.21B27,2013-10-04 08:25:00,
2013-10-04 04:30:00,76.1,72.3,30.00,East,101,0.0,1.0,88,0.00,,,0.00,WeatherCatV1.21B27,2013-10-04 08:30:00,
2013-10-04 04:35:00,76.1,72.3,30.00,East,101,4.0,4.0,88,0.00,,,0.00,WeatherCatV1.21B27,2013-10-04 08:35:00,
2013-10-04 04:40:00,76.0,72.2,30.00,East,99,0.0,3.0,88,0.00,,,0.00,WeatherCatV1.21B27,2013-10-04 08:40:00,
2013-10-04 04:45:00,76.0,72.2,30.00,East,99,2.0,2.0,88,0.00,,,0.00,WeatherCatV1.21B27,2013-10-04 08:45:00,
2013-10-04 04:50:00,76.0,72.2,30.00,East,98,0.0,2.0,88,0.00,,,0.00,WeatherCatV1.21B27,2013-10-04 08:50:00,
2013-10-04 04:55:00,76.0,72.2,29.99,East,98,0.0,2.0,88,0.00,,,0.00,WeatherCatV1.21B27,2013-10-04 08:55:00,
2013-10-04 05:00:00,75.9,72.1,29.99,East,98,0.0,1.0,88,0.00,,,0.00,WeatherCatV1.21B27,2013-10-04 09:00:00,
2013-10-04 05:05:00,75.8,72.3,29.99,East,98,0.0,1.0,89,0.00,,,0.00,WeatherCatV1.21B27,2013-10-04 09:05:00,
2013-10-04 05:10:00,75.8,72.3,29.99,East,98,0.0,0.0,89,0.00,,,0.00,WeatherCatV1.21B27,2013-10-04 09:10:00,
2013-10-04 05:15:00,75.8,72.3,30.00,East,98,0.0,2.0,89,0.00,,,0.00,WeatherCatV1.21B27,2013-10-04 09:15:00,
2013-10-04 05:20:00,75.8,72.3,29.99,East,94,0.0,2.0,89,0.00,,,0.00,WeatherCatV1.21B27,2013-10-04 09:20:00,
2013-10-04 05:25:00,75.8,72.3,30.00,East,96,0.0,2.0,89,0.00,,,0.00,WeatherCatV1.21B27,2013-10-04 09:25:00,
2013-10-04 05:30:00,75.8,72.3,30.00,East,96,0.0,2.0,89,0.00,,,0.00,WeatherCatV1.21B27,2013-10-04 09:30:00,
2013-10-04 05:35:00,75.8,72.3,30.00,East,96,0.0,0.0,89,0.00,,,0.00,WeatherCatV1.21B27,2013-10-04 09:35:00,
2013-10-04 05:40:00,75.7,72.2,30.00,East,97,1.0,5.0,89,0.00,,,0.00,WeatherCatV1.21B27,2013-10-04 09:40:00,
2013-10-04 05:45:00,75.7,72.2,30.00,East,93,0.0,4.0,89,0.00,,,0.00,WeatherCatV1.21B27,2013-10-04 09:45:00,
2013-10-04 05:50:00,75.6,72.1,30.00,East,92,1.0,4.0,89,0.00,,,0.00,WeatherCatV1.21B27,2013-10-04 09:50:00,
2013-10-04 05:55:00,75.7,72.2,30.00,East,84,0.0,1.0,89,0.00,,,0.00,WeatherCatV1.21B27,2013-10-04 09:55:00,
2013-10-04 06:00:00,75.6,72.1,30.01,East,84,1.0,2.0,89,0.00,,,0.00,WeatherCatV1.21B27,2013-10-04 10:00:00,
2013-10-04 06:05:00,75.6,72.1,30.01,East,88,2.0,3.0,89,0.00,,,0.00,WeatherCatV1.21B27,2013-10-04 10:05:00,
2013-10-04 06:10:00,75.6,72.1,30.00,East,92,1.0,2.0,89,0.00,,,0.00,WeatherCatV1.21B27,2013-10-04 10:10:00,
2013-10-04 06:15:00,75.5,72.0,30.00,East,90,1.0,2.0,89,0.00,,,0.00,WeatherCatV1.21B27,2013-10-04 10:15:00,
2013-10-04 06:20:00,75.5,72.0,30.00,East,90,0.0,0.0,89,0.00,,,0.00,WeatherCatV1.21B27,2013-10-04 10:20:00,
2013-10-04 06:25:00,75.4,71.9,30.00,East,87,0.0,1.0,89,0.00,,,0.00,WeatherCatV1.21B27,2013-10-04 10:25:00,
2013-10-04 06:30:00,75.4,71.9,30.00,East,92,2.0,2.0,89,0.00,,,0.00,WeatherCatV1.21B27,2013-10-04 10:30:00,
2013-10-04 06:35:00,75.4,71.9,30.00,ENE,61,1.0,3.0,89,0.00,,,0.00,WeatherCatV1.21B27,2013-10-04 10:35:00,
2013-10-04 06:40:00,75.3,71.8,30.00,ENE,62,3.0,3.0,89,0.00,,,0.00,WeatherCatV1.21B27,2013-10-04 10:40:00,
2013-10-04 06:45:00,75.3,71.8,30.01,ENE,72,0.0,1.0,89,0.00,,,0.00,WeatherCatV1.21B27,2013-10-04 10:45:00,
2013-10-04 06:50:00,75.2,72.1,30.01,ENE,72,0.0,0.0,90,0.00,,,0.00,WeatherCatV1.21B27,2013-10-04 10:50:00,
2013-10-04 06:55:00,75.2,72.1,30.01,ENE,72,0.0,1.0,90,0.00,,,0.00,WeatherCatV1.21B27,2013-10-04 10:55:00,
2013-10-04 07:00:00,75.2,72.1,30.01,ENE,72,0.0,0.0,90,0.00,,,0.00,WeatherCatV1.21B27,2013-10-04 11:00:00,
2013-10-04 07:05:00,75.1,72.0,30.01,East,83,1.0,4.0,90,0.00,,,0.00,WeatherCatV1.21B27,2013-10-04 11:05:00,
2013-10-04 07:10:00,75.1,72.0,30.02,East,84,0.0,0.0,90,0.00,,,0.00,WeatherCatV1.21B27,2013-10-04 11:10:00,
2013-10-04 07:15:00,75.0,72.2,30.02,East,84,0.0,0.0,91,0.00,,,0.00,WeatherCatV1.21B27,2013-10-04 11:15:00,
2013-10-04 07:20:00,75.0,72.2,30.02,ESE,108,1.0,4.0,91,0.00,,,0.00,WeatherCatV1.21B27,2013-10-04 11:20:00,
2013-10-04 07:25:00,74.9,72.1,30.02,ESE,107,0.0,0.0,91,0.00,,,0.00,WeatherCatV1.21B27,2013-10-04 11:25:00,
2013-10-04 07:30:00,74.9,72.1,30.02,ESE,106,0.0,1.0,91,0.00,,,0.00,WeatherCatV1.21B27,2013-10-04 11:30:00,
2013-10-04 07:35:00,74.9,72.1,30.02,ESE,105,0.0,2.0,91,0.00,,,0.00,WeatherCatV1.21B27,2013-10-04 11:35:00,
2013-10-04 07:40:00,74.9,72.1,30.02,East,98,3.0,3.0,91,0.00,,,0.00,WeatherCatV1.21B27,2013-10-04 11:40:00,
2013-10-04 07:45:00,75.0,72.2,30.02,ESE,116,0.0,2.0,91,0.00,,,0.00,WeatherCatV1.21B27,2013-10-04 11:45:00,
2013-10-04 07:50:00,75.1,72.3,30.02,East,88,0.0,2.0,91,0.00,,,0.00,WeatherCatV1.21B27,2013-10-04 11:50:00,
2013-10-04 07:55:00,75.1,72.3,30.02,NE,49,3.0,5.0,91,0.00,,,0.00,WeatherCatV1.21B27,2013-10-04 11:55:00,
2013-10-04 08:00:00,75.2,72.1,30.02,ESE,113,3.0,6.0,90,0.00,,,0.00,WeatherCatV1.21B27,2013-10-04 12:00:00,
2013-10-04 08:05:00,75.3,72.2,30.02,ENE,69,0.0,3.0,90,0.00,,,0.00,WeatherCatV1.21B27,2013-10-04 12:05:00,
2013-10-04 08:10:00,75.5,72.3,30.03,East,92,1.0,5.0,90,0.00,,,0.00,WeatherCatV1.21B27,2013-10-04 12:10:00,
2013-10-04 08:15:00,75.6,72.4,30.03,East,100,0.0,5.0,90,0.00,,,0.00,WeatherCatV1.21B27,2013-10-04 12:15:00,
2013-10-04 08:20:00,75.8,72.7,30.03,ENE,59,1.0,3.0,90,0.00,,,0.00,WeatherCatV1.21B27,2013-10-04 12:20:00,
2013-10-04 08:25:00,76.1,72.6,30.03,East,96,1.0,2.0,89,0.00,,,0.00,WeatherCatV1.21B27,2013-10-04 12:25:00,
2013-10-04 08:30:00,76.3,72.5,30.04,East,95,2.0,2.0,88,0.00,,,0.00,WeatherCatV1.21B27,2013-10-04 12:30:00,
2013-10-04 08:35:00,76.6,72.8,30.04,East,92,1.0,6.0,88,0.00,,,0.00,WeatherCatV1.21B27,2013-10-04 12:35:00,
2013-10-04 08:40:00,76.9,72.7,30.04,East,100,0.0,4.0,87,0.00,,,0.00,WeatherCatV1.21B27,2013-10-04 12:40:00,
2013-10-04 08:45:00,77.3,72.8,30.05,East,90,1.0,5.0,86,0.00,,,0.00,WeatherCatV1.21B27,2013-10-04 12:45:00,
2013-10-04 08:50:00,77.7,72.8,30.05,SE,130,5.0,6.0,85,0.00,,,0.00,WeatherCatV1.21B27,2013-10-04 12:50:00,
2013-10-04 08:55:00,77.8,72.6,30.05,ENE,66,5.0,5.0,84,0.00,,,0.00,WeatherCatV1.21B27,2013-10-04 12:55:00,
2013-10-04 09:00:00,77.9,73.0,30.05,SE,140,3.0,4.0,85,0.00,,,0.00,WeatherCatV1.21B27,2013-10-04 13:00:00,
2013-10-04 09:05:00,78.0,72.8,30.05,East,96,2.0,6.0,84,0.00,,,0.00,WeatherCatV1.21B27,2013-10-04 13:05:00,
2013-10-04 09:10:00,78.1,72.9,30.06,ESE,114,1.0,5.0,84,0.00,,,0.00,WeatherCatV1.21B27,2013-10-04 13:10:00,
2013-10-04 09:15:00,78.2,72.9,30.06,East,82,1.0,7.0,84,0.00,,,0.00,WeatherCatV1.21B27,2013-10-04 13:15:00,
2013-10-04 09:20:00,78.3,73.1,30.06,ESE,109,0.0,2.0,84,0.00,,,0.00,WeatherCatV1.21B27,2013-10-04 13:20:00,
2013-10-04 09:25:00,78.4,72.8,30.06,ENE,74,1.0,6.0,83,0.00,,,0.00,WeatherCatV1.21B27,2013-10-04 13:25:00,
2013-10-04 09:30:00,78.5,72.9,30.06,East,89,0.0,5.0,83,0.00,,,0.00,WeatherCatV1.21B27,2013-10-04 13:30:00,
2013-10-04 09:35:00,78.6,73.0,30.06,NE,49,0.0,4.0,83,0.00,,,0.00,WeatherCatV1.21B27,2013-10-04 13:35:00,
2013-10-04 09:40:00,78.8,73.2,30.06,ENE,76,1.0,4.0,83,0.00,,,0.00,WeatherCatV1.21B27,2013-10-04 13:40:00,
2013-10-04 09:45:00,79.2,73.6,30.06,NNE,30,0.0,4.0,83,0.00,,,0.00,WeatherCatV1.21B27,2013-10-04 13:45:00,
2013-10-04 09:50:00,79.8,73.8,30.06,ESE,111,0.0,4.0,82,0.00,,,0.00,WeatherCatV1.21B27,2013-10-04 13:50:00,
2013-10-04 09:55:00,80.3,74.3,30.07,East,80,0.0,0.0,82,0.00,,,0.00,WeatherCatV1.21B27,2013-10-04 13:55:00,
2013-10-04 10:00:00,80.9,74.1,30.06,NNE,13,4.0,4.0,80,0.00,,,0.00,WeatherCatV1.21B27,2013-10-04 14:00:00,
2013-10-04 10:06:00,81.3,74.5,30.07,East,96,0.0,7.0,80,0.00,,,0.00,WeatherCatV1.21B27,2013-10-04 14:06:00,
2013-10-04 10:11:00,81.7,74.5,30.07,East,98,4.0,6.0,79,0.00,,,0.00,WeatherCatV1.21B27,2013-10-04 14:11:00,
2013-10-04 10:16:00,82.0,74.4,30.07,East,96,4.0,4.0,78,0.00,,,0.00,WeatherCatV1.21B27,2013-10-04 14:16:00,
2013-10-04 10:21:00,82.1,74.2,30.06,East,93,6.0,7.0,77,0.00,,,0.00,WeatherCatV1.21B27,2013-10-04 14:21:00,
2013-10-04 10:26:00,82.4,74.4,30.06,SE,132,2.0,4.0,77,0.00,,,0.00,WeatherCatV1.21B27,2013-10-04 14:26:00,
2013-10-04 10:31:00,83.4,75.4,30.07,South,188,1.0,4.0,77,0.00,,,0.00,WeatherCatV1.21B27,2013-10-04 14:31:00,
2013-10-04 10:36:00,83.8,74.6,30.07,ENE,64,2.0,5.0,74,0.00,,,0.00,WeatherCatV1.21B27,2013-10-04 14:36:00,
2013-10-04 10:41:00,83.7,74.1,30.07,East,99,2.0,4.0,73,0.00,,,0.00,WeatherCatV1.21B27,2013-10-04 14:41:00,
2013-10-04 10:46:00,83.9,73.9,30.07,ESE,113,1.0,7.0,72,0.00,,,0.00,WeatherCatV1.21B27,2013-10-04 14:46:00,
2013-10-04 10:51:00,84.1,74.1,30.07,ESE,123,0.0,1.0,72,0.00,,,0.00,WeatherCatV1.21B27,2013-10-04 14:51:00,
2013-10-04 10:56:00,84.4,73.9,30.07,ENE,65,5.0,5.0,71,0.00,,,0.00,WeatherCatV1.21B27,2013-10-04 14:56:00,
2013-10-04 11:01:00,84.7,74.7,30.07,East,88,6.0,6.0,72,0.00,,,0.00,WeatherCatV1.21B27,2013-10-04 15:01:00,
2013-10-04 11:06:00,84.9,73.1,30.07,ESE,103,1.0,6.0,68,0.00,,,0.00,WeatherCatV1.21B27,2013-10-04 15:06:00,
2013-10-04 11:11:00,85.0,73.2,30.07,East,86,1.0,5.0,68,0.00,,,0.00,WeatherCatV1.21B27,2013-10-04 15:11:00,
2013-10-04 11:16:00,85.4,74.0,30.07,SE,126,0.0,6.0,69,0.00,,,0.00,WeatherCatV1.21B27,2013-10-04 15:16:00,
2013-10-04 11:20:00,85.7,73.4,30.07,East,81,1.0,6.0,67,0.00,,,0.00,WeatherCatV1.21B27,2013-10-04 15:20:00,
2013-10-04 11:25:00,86.1,72.9,30.07,ENE,74,6.0,8.0,65,0.00,,,0.00,WeatherCatV1.21B27,2013-10-04 15:25:00,
2013-10-04 11:30:00,86.2,73.9,30.07,ENE,78,4.0,6.0,67,0.00,,,0.00,WeatherCatV1.21B27,2013-10-04 15:30:00,
2013-10-04 11:35:00,86.3,73.6,30.07,NE,49,2.0,6.0,66,0.00,,,0.00,WeatherCatV1.21B27,2013-10-04 15:35:00,
2013-10-04 11:40:00,86.4,73.7,30.07,ENE,74,1.0,9.0,66,0.00,,,0.00,WeatherCatV1.21B27,2013-10-04 15:40:00,
2013-10-04 11:45:00,86.9,74.1,30.07,ESE,106,4.0,4.0,66,0.00,,,0.00,WeatherCatV1.21B27,2013-10-04 15:45:00,
2013-10-04 11:50:00,87.2,73.0,30.07,ESE,111,1.0,5.0,63,0.00,,,0.00,WeatherCatV1.21B27,2013-10-04 15:50:00,
2013-10-04 11:55:00,87.3,73.1,30.07,North,11,2.0,6.0,63,0.00,,,0.00,WeatherCatV1.21B27,2013-10-04 15:55:00,
2013-10-04 12:00:00,87.4,71.8,30.07,ESE,107,2.0,8.0,60,0.00,,,0.00,WeatherCatV1.21B27,2013-10-04 16:00:00,
2013-10-04 12:05:00,87.3,71.7,30.07,ESE,109,4.0,7.0,60,0.00,,,0.00,WeatherCatV1.21B27,2013-10-04 16:05:00,
2013-10-04 12:10:00,87.4,73.2,30.06,ESE,112,2.0,6.0,63,0.00,,,0.00,WeatherCatV1.21B27,2013-10-04 16:10:00,
2013-10-04 12:15:00,87.5,72.8,30.06,ENE,59,1.0,4.0,62,0.00,,,0.00,WeatherCatV1.21B27,2013-10-04 16:15:00,
2013-10-04 12:20:00,87.9,74.2,30.06,ENE,65,6.0,8.0,64,0.00,,,0.00,WeatherCatV1.21B27,2013-10-04 16:20:00,
2013-10-04 12:25:00,88.0,73.3,30.06,ESE,108,5.0,6.0,62,0.00,,,0.00,WeatherCatV1.21B27,2013-10-04 16:25:00,
2013-10-04 12:30:00,87.9,73.2,30.06,ESE,109,3.0,4.0,62,0.00,,,0.00,WeatherCatV1.21B27,2013-10-04 16:30:00,
2013-10-04 12:35:00,88.0,73.3,30.05,ESE,112,0.0,6.0,62,0.00,,,0.00,WeatherCatV1.21B27,2013-10-04 16:35:00,
2013-10-04 12:40:00,88.1,73.9,30.05,East,96,4.0,4.0,63,0.00,,,0.00,WeatherCatV1.21B27,2013-10-04 16:40:00,
2013-10-04 12:45:00,88.5,74.3,30.05,NW,311,0.0,6.0,63,0.00,,,0.00,WeatherCatV1.21B27,2013-10-04 16:45:00,
2013-10-04 12:50:00,88.5,74.3,30.05,East,84,4.0,6.0,63,0.00,,,0.00,WeatherCatV1.21B27,2013-10-04 16:50:00,
2013-10-04 12:55:00,88.7,73.0,30.05,East,96,1.0,7.0,60,0.00,,,0.00,WeatherCatV1.21B27,2013-10-04 16:55:00,
2013-10-04 13:00:00,88.8,73.6,30.04,SSE,157,2.0,2.0,61,0.00,,,0.00,WeatherCatV1.21B27,2013-10-04 17:00:00,
2013-10-04 13:05:00,89.0,73.3,30.04,East,89,1.0,4.0,60,0.00,,,0.00,WeatherCatV1.21B27,2013-10-04 17:05:00,
2013-10-04 13:10:00,89.4,72.1,30.04,East,84,0.0,6.0,57,0.00,,,0.00,WeatherCatV1.21B27,2013-10-04 17:10:00,
2013-10-04 13:15:00,89.5,73.7,30.03,East,96,0.0,3.0,60,0.00,,,0.00,WeatherCatV1.21B27,2013-10-04 17:15:00,
2013-10-04 13:20:00,89.5,71.7,30.03,ESE,120,2.0,5.0,56,0.00,,,0.00,WeatherCatV1.21B27,2013-10-04 17:20:00,
2013-10-04 13:25:00,89.1,72.9,30.03,North,9,1.0,4.0,59,0.00,,,0.00,WeatherCatV1.21B27,2013-10-04 17:25:00,
2013-10-04 13:30:00,89.2,73.0,30.03,ESE,105,0.0,2.0,59,0.00,,,0.00,WeatherCatV1.21B27,2013-10-04 17:30:00,
2013-10-04 13:35:00,89.2,72.4,30.03,NNE,23,1.0,7.0,58,0.00,,,0.00,WeatherCatV1.21B27,2013-10-04 17:35:00,
2013-10-04 14:00:00,88.8,72.6,30.01,ENE,61,2.0,4.0,59,0.00,,,0.00,WeatherCatV1.21B27,2013-10-04 18:00:00,
2013-10-04 14:05:00,89.4,72.1,30.01,NNE,15,2.0,6.0,57,0.00,,,0.00,WeatherCatV1.21B27,2013-10-04 18:05:00,
2013-10-04 14:10:00,89.5,71.7,30.01,NE,49,1.0,5.0,56,0.00,,,0.00,WeatherCatV1.21B27,2013-10-04 18:10:00,
2013-10-04 14:15:00,89.5,72.2,30.01,NE,38,0.0,4.0,57,0.00,,,0.00,WeatherCatV1.21B27,2013-10-04 18:15:00,
2013-10-04 14:20:00,89.4,70.5,30.01,East,82,0.0,2.0,54,0.00,,,0.00,WeatherCatV1.21B27,2013-10-04 18:20:00,
2013-10-04 14:25:00,89.5,71.7,30.01,SE,125,0.0,1.0,56,0.00,,,0.00,WeatherCatV1.21B27,2013-10-04 18:25:00,
2013-10-04 14:30:00,89.3,72.0,30.01,ENE,76,1.0,2.0,57,0.00,,,0.00,WeatherCatV1.21B27,2013-10-04 18:30:00,
2013-10-04 14:35:00,89.3,72.5,30.00,ESE,106,0.0,2.0,58,0.00,,,0.00,WeatherCatV1.21B27,2013-10-04 18:35:00,
2013-10-04 14:40:00,89.3,72.5,30.00,East,88,1.0,2.0,58,0.00,,,0.00,WeatherCatV1.21B27,2013-10-04 18:40:00,
2013-10-04 14:45:00,89.5,73.7,30.00,ESE,123,0.0,0.0,60,0.00,,,0.00,WeatherCatV1.21B27,2013-10-04 18:45:00,
2013-10-04 14:50:00,89.5,71.7,30.01,East,82,0.0,4.0,56,0.00,,,0.00,WeatherCatV1.21B27,2013-10-04 18:50:00,
2013-10-04 14:55:00,89.5,74.2,30.00,North,5,0.0,0.0,61,0.00,,,0.00,WeatherCatV1.21B27,2013-10-04 18:55:00,
2013-10-04 15:00:00,89.5,75.2,30.00,West,268,0.0,3.0,63,0.00,,,0.00,WeatherCatV1.21B27,2013-10-04 19:00:00,
2013-10-04 15:06:00,88.8,75.9,30.00,WNW,282,4.0,5.0,66,0.00,,,0.00,WeatherCatV1.21B27,2013-10-04 19:06:00,
2013-10-04 15:11:00,88.4,75.6,30.00,WNW,298,0.0,4.0,66,0.00,,,0.00,WeatherCatV1.21B27,2013-10-04 19:11:00,
2013-10-04 15:16:00,88.1,76.2,30.00,WNW,292,0.0,5.0,68,0.00,,,0.00,WeatherCatV1.21B27,2013-10-04 19:16:00,
2013-10-04 15:21:00,87.9,76.9,30.00,NW,304,1.0,5.0,70,0.00,,,0.00,WeatherCatV1.21B27,2013-10-04 19:21:00,
2013-10-04 15:26:00,87.8,75.9,30.00,West,271,1.0,9.0,68,0.00,,,0.00,WeatherCatV1.21B27,2013-10-04 19:26:00,
2013-10-04 15:31:00,87.6,75.7,29.99,West,270,5.0,6.0,68,0.00,,,0.00,WeatherCatV1.21B27,2013-10-04 19:31:00,
2013-10-04 15:36:00,87.6,75.7,29.99,WNW,300,0.0,4.0,68,0.00,,,0.00,WeatherCatV1.21B27,2013-10-04 19:36:00,
2013-10-04 15:41:00,87.9,75.1,29.99,WNW,286,0.0,2.0,66,0.00,,,0.00,WeatherCatV1.21B27,2013-10-04 19:41:00,
2013-10-04 15:46:00,88.3,75.9,29.99,WNW,292,2.0,4.0,67,0.00,,,0.00,WeatherCatV1.21B27,2013-10-04 19:46:00,
2013-10-04 15:51:00,88.6,76.2,29.99,WNW,300,5.0,7.0,67,0.00,,,0.00,WeatherCatV1.21B27,2013-10-04 19:51:00,
2013-10-04 15:56:00,88.6,76.2,29.99,WNW,286,2.0,7.0,67,0.00,,,0.00,WeatherCatV1.21B27,2013-10-04 19:56:00,
2013-10-04 16:01:00,88.3,75.5,29.99,WNW,290,0.0,0.0,66,0.00,,,0.00,WeatherCatV1.21B27,2013-10-04 20:01:00,
2013-10-04 16:06:00,88.1,74.3,29.99,NW,323,0.0,2.0,64,0.00,,,0.00,WeatherCatV1.21B27,2013-10-04 20:06:00,
2013-10-04 16:11:00,88.1,75.3,29.99,West,266,0.0,2.0,66,0.00,,,0.00,WeatherCatV1.21B27,2013-10-04 20:11:00,
2013-10-04 16:16:00,87.9,76.0,29.98,West,267,0.0,1.0,68,0.00,,,0.00,WeatherCatV1.21B27,2013-10-04 20:16:00,
2013-10-04 16:21:00,87.8,75.9,29.98,West,278,1.0,5.0,68,0.00,,,0.00,WeatherCatV1.21B27,2013-10-04 20:21:00,
2013-10-04 16:26:00,87.7,76.7,29.99,West,272,2.0,2.0,70,0.00,,,0.00,WeatherCatV1.21B27,2013-10-04 20:26:00,
2013-10-04 16:31:00,87.5,76.5,29.98,West,271,0.0,2.0,70,0.00,,,0.00,WeatherCatV1.21B27,2013-10-04 20:31:00,
2013-10-04 16:36:00,87.3,76.7,29.98,West,275,0.0,2.0,71,0.00,,,0.00,WeatherCatV1.21B27,2013-10-04 20:36:00,
2013-10-04 16:41:00,87.2,76.6,29.98,West,271,1.0,2.0,71,0.00,,,0.00,WeatherCatV1.21B27,2013-10-04 20:41:00,
2013-10-04 16:46:00,87.2,76.6,29.98,West,281,5.0,5.0,71,0.00,,,0.00,WeatherCatV1.21B27,2013-10-04 20:46:00,
2013-10-04 16:51:00,87.2,76.2,29.98,WNW,296,0.0,5.0,70,0.00,,,0.00,WeatherCatV1.21B27,2013-10-04 20:51:00,
2013-10-04 16:56:00,87.1,76.1,29.98,WNW,292,2.0,3.0,70,0.00,,,0.00,WeatherCatV1.21B27,2013-10-04 20:56:00,
2013-10-04 17:01:00,87.1,76.1,29.98,West,275,2.0,5.0,70,0.00,,,0.00,WeatherCatV1.21B27,2013-10-04 21:01:00,
2013-10-04 17:06:00,87.2,75.8,29.98,West,277,1.0,2.0,69,0.00,,,0.00,WeatherCatV1.21B27,2013-10-04 21:06:00,
2013-10-04 17:11:00,87.2,75.3,29.98,WNW,303,2.0,5.0,68,0.00,,,0.00,WeatherCatV1.21B27,2013-10-04 21:11:00,
2013-10-04 17:16:00,87.2,75.8,29.98,West,269,4.0,6.0,69,0.00,,,0.00,WeatherCatV1.21B27,2013-10-04 21:16:00,
2013-10-04 17:21:00,87.2,74.9,29.98,WNW,302,4.0,6.0,67,0.00,,,0.00,WeatherCatV1.21B27,2013-10-04 21:21:00,
2013-10-04 17:26:00,87.0,75.1,29.98,NW,311,1.0,4.0,68,0.00,,,0.00,WeatherCatV1.21B27,2013-10-04 21:26:00,
2013-10-04 17:31:00,86.9,75.0,29.98,West,279,5.0,7.0,68,0.00,,,0.00,WeatherCatV1.21B27,2013-10-04 21:31:00,
2013-10-04 17:36:00,86.8,74.5,29.98,NW,322,5.0,5.0,67,0.00,,,0.00,WeatherCatV1.21B27,2013-10-04 21:36:00,
2013-10-04 17:41:00,86.6,74.3,29.99,WNW,301,1.0,5.0,67,0.00,,,0.00,WeatherCatV1.21B27,2013-10-04 21:41:00,
2013-10-04 17:46:00,86.5,73.8,29.98,WNW,296,1.0,3.0,66,0.00,,,0.00,WeatherCatV1.21B27,2013-10-04 21:46:00,
2013-10-04 17:51:00,86.5,74.2,29.99,WNW,288,2.0,5.0,67,0.00,,,0.00,WeatherCatV1.21B27,2013-10-04 21:51:00,
2013-10-04 17:56:00,86.5,73.8,29.98,WNW,298,0.0,5.0,66,0.00,,,0.00,WeatherCatV1.21B27,2013-10-04 21:56:00,
2013-10-04 18:01:00,86.4,73.7,29.99,WNW,298,0.0,5.0,66,0.00,,,0.00,WeatherCatV1.21B27,2013-10-04 22:01:00,
2013-10-04 18:06:00,86.5,74.7,29.99,WNW,298,0.0,0.0,68,0.00,,,0.00,WeatherCatV1.21B27,2013-10-04 22:06:00,
2013-10-04 18:11:00,86.4,74.1,29.99,WNW,298,0.0,1.0,67,0.00,,,0.00,WeatherCatV1.21B27,2013-10-04 22:11:00,
2013-10-04 18:16:00,86.4,73.7,29.99,North,11,0.0,2.0,66,0.00,,,0.00,WeatherCatV1.21B27,2013-10-04 22:16:00,
2013-10-04 18:21:00,86.3,74.5,29.99,North,11,0.0,0.0,68,0.00,,,0.00,WeatherCatV1.21B27,2013-10-04 22:21:00,
2013-10-04 18:26:00,86.1,73.8,29.99,North,11,0.0,0.0,67,0.00,,,0.00,WeatherCatV1.21B27,2013-10-04 22:26:00,
2013-10-04 18:31:00,86.0,73.7,29.99,North,11,0.0,0.0,67,0.00,,,0.00,WeatherCatV1.21B27,2013-10-04 22:31:00,
2013-10-04 18:36:00,85.8,73.1,29.99,North,11,0.0,1.0,66,0.00,,,0.00,WeatherCatV1.21B27,2013-10-04 22:36:00,
2013-10-04 18:41:00,85.8,74.0,29.99,North,11,0.0,0.0,68,0.00,,,0.00,WeatherCatV1.21B27,2013-10-04 22:41:00,
2013-10-04 18:46:00,85.6,73.8,29.99,North,11,0.0,0.0,68,0.00,,,0.00,WeatherCatV1.21B27,2013-10-04 22:46:00,
2013-10-04 18:51:00,85.5,73.7,29.99,North,11,0.0,0.0,68,0.00,,,0.00,WeatherCatV1.21B27,2013-10-04 22:51:00,
2013-10-04 18:56:00,85.3,72.6,29.99,North,11,0.0,1.0,66,0.00,,,0.00,WeatherCatV1.21B27,2013-10-04 22:56:00,
2013-10-04 19:01:00,85.1,72.4,29.99,North,11,0.0,0.0,66,0.00,,,0.00,WeatherCatV1.21B27,2013-10-04 23:01:00,
2013-10-04 19:06:00,85.0,72.8,29.99,North,11,0.0,0.0,67,0.00,,,0.00,WeatherCatV1.21B27,2013-10-04 23:06:00,
2013-10-04 19:11:00,84.8,73.5,29.99,North,11,0.0,0.0,69,0.00,,,0.00,WeatherCatV1.21B27,2013-10-04 23:11:00,
2013-10-04 19:16:00,84.5,73.2,29.98,NNE,12,0.0,0.0,69,0.00,,,0.00,WeatherCatV1.21B27,2013-10-04 23:16:00,
2013-10-04 19:21:00,84.3,73.4,29.99,NNE,12,0.0,0.0,70,0.00,,,0.00,WeatherCatV1.21B27,2013-10-04 23:21:00,
2013-10-04 19:26:00,84.0,72.3,29.98,NNE,12,0.0,0.0,68,0.00,,,0.00,WeatherCatV1.21B27,2013-10-04 23:26:00,
2013-10-04 19:31:00,83.8,72.5,29.99,NNE,12,0.0,0.0,69,0.00,,,0.00,WeatherCatV1.21B27,2013-10-04 23:31:00,
2013-10-04 19:36:00,83.6,72.8,29.99,NNE,12,0.0,0.0,70,0.00,,,0.00,WeatherCatV1.21B27,2013-10-04 23:36:00,
2013-10-04 19:41:00,83.4,72.1,29.99,NNE,12,0.0,0.0,69,0.00,,,0.00,WeatherCatV1.21B27,2013-10-04 23:41:00,
2013-10-04 19:47:00,83.1,72.3,29.99,NNE,12,0.0,0.0,70,0.00,,,0.00,WeatherCatV1.21B27,2013-10-04 23:47:00,
2013-10-04 19:52:00,82.9,72.1,29.99,NNE,12,0.0,0.0,70,0.00,,,0.00,WeatherCatV1.21B27,2013-10-04 23:52:00,
2013-10-04 19:57:00,82.7,72.3,29.99,NNE,12,0.0,0.0,71,0.00,,,0.00,WeatherCatV1.21B27,2013-10-04 23:57:00,
2013-10-04 20:02:00,82.5,72.1,29.99,NNE,12,0.0,0.0,71,0.00,,,0.00,WeatherCatV1.21B27,2013-10-05 00:02:00,
2013-10-04 20:07:00,82.3,71.9,29.99,NNE,12,0.0,0.0,71,0.00,,,0.00,WeatherCatV1.21B27,2013-10-05 00:07:00,
2013-10-04 20:12:00,82.1,72.2,29.99,NNE,12,0.0,0.0,72,0.00,,,0.00,WeatherCatV1.21B27,2013-10-05 00:12:00,
2013-10-04 20:17:00,81.8,71.9,30.00,NNE,12,0.0,0.0,72,0.00,,,0.00,WeatherCatV1.21B27,2013-10-05 00:17:00,
2013-10-04 20:22:00,81.6,71.7,30.00,NNE,12,0.0,0.0,72,0.00,,,0.00,WeatherCatV1.21B27,2013-10-05 00:22:00,
2013-10-04 20:27:00,81.4,71.9,30.00,NNE,12,0.0,0.0,73,0.00,,,0.00,WeatherCatV1.21B27,2013-10-05 00:27:00,
2013-10-04 20:32:00,81.2,71.3,30.00,NNE,12,0.0,0.0,72,0.00,,,0.00,WeatherCatV1.21B27,2013-10-05 00:32:00,
2013-10-04 20:37:00,81.1,71.6,30.00,NNE,12,0.0,0.0,73,0.00,,,0.00,WeatherCatV1.21B27,2013-10-05 00:37:00,
2013-10-04 20:42:00,81.0,71.5,30.00,NNE,12,0.0,0.0,73,0.00,,,0.00,WeatherCatV1.21B27,2013-10-05 00:42:00,
2013-10-04 20:47:00,80.9,71.4,30.00,NNE,12,0.0,0.0,73,0.00,,,0.00,WeatherCatV1.21B27,2013-10-05 00:47:00,
2013-10-04 20:52:00,80.8,71.7,30.00,NNE,12,0.0,0.0,74,0.00,,,0.00,WeatherCatV1.21B27,2013-10-05 00:52:00,
2013-10-04 20:57:00,80.7,71.6,30.00,NNE,12,0.0,0.0,74,0.00,,,0.00,WeatherCatV1.21B27,2013-10-05 00:57:00,
2013-10-04 21:02:00,80.6,72.3,30.01,NNE,12,0.0,0.0,76,0.00,,,0.00,WeatherCatV1.21B27,2013-10-05 01:02:00,
2013-10-04 21:07:00,80.4,72.1,30.01,NNE,12,0.0,0.0,76,0.00,,,0.00,WeatherCatV1.21B27,2013-10-05 01:07:00,
2013-10-04 21:12:00,80.1,71.8,30.01,NNE,12,0.0,0.0,76,0.00,,,0.00,WeatherCatV1.21B27,2013-10-05 01:12:00,
2013-10-04 21:17:00,79.9,71.2,30.01,NNE,12,0.0,0.0,75,0.00,,,0.00,WeatherCatV1.21B27,2013-10-05 01:17:00,
2013-10-04 21:22:00,79.7,70.7,30.02,NNE,12,0.0,0.0,74,0.00,,,0.00,WeatherCatV1.21B27,2013-10-05 01:22:00,
2013-10-04 21:27:00,79.6,71.0,30.01,NNE,12,0.0,0.0,75,0.00,,,0.00,WeatherCatV1.21B27,2013-10-05 01:27:00,
2013-10-04 21:32:00,79.6,71.0,30.02,NNE,12,0.0,0.0,75,0.00,,,0.00,WeatherCatV1.21B27,2013-10-05 01:32:00,
2013-10-04 21:37:00,79.6,71.0,30.02,NNW,333,0.0,4.0,75,0.00,,,0.00,WeatherCatV1.21B27,2013-10-05 01:37:00,
2013-10-04 21:42:00,79.5,71.2,30.02,NNW,333,0.0,1.0,76,0.00,,,0.00,WeatherCatV1.21B27,2013-10-05 01:42:00,
2013-10-04 21:47:00,79.5,71.2,30.02,NNW,333,0.0,0.0,76,0.00,,,0.00,WeatherCatV1.21B27,2013-10-05 01:47:00,
2013-10-04 21:52:00,79.5,71.2,30.02,NNW,333,0.0,0.0,76,0.00,,,0.00,WeatherCatV1.21B27,2013-10-05 01:52:00,
2013-10-04 21:57:00,79.4,71.2,30.02,NNW,333,0.0,0.0,76,0.00,,,0.00,WeatherCatV1.21B27,2013-10-05 01:57:00,
2013-10-04 22:02:00,79.3,71.1,30.03,NNW,333,0.0,0.0,76,0.00,,,0.00,WeatherCatV1.21B27,2013-10-05 02:02:00,
2013-10-04 22:07:00,79.2,71.3,30.03,NNW,333,0.0,0.0,77,0.00,,,0.00,WeatherCatV1.21B27,2013-10-05 02:07:00,
2013-10-04 22:12:00,79.2,71.3,30.03,NNW,333,0.0,0.0,77,0.00,,,0.00,WeatherCatV1.21B27,2013-10-05 02:12:00,
2013-10-04 22:17:00,79.1,71.6,30.03,NNW,333,0.0,0.0,78,0.00,,,0.00,WeatherCatV1.21B27,2013-10-05 02:17:00,
2013-10-04 22:22:00,78.9,71.4,30.03,NNW,333,0.0,0.0,78,0.00,,,0.00,WeatherCatV1.21B27,2013-10-05 02:22:00,
2013-10-04 22:27:00,78.8,71.3,30.04,North,5,0.0,1.0,78,0.00,,,0.00,WeatherCatV1.21B27,2013-10-05 02:27:00,
2013-10-04 22:32:00,78.7,71.6,30.03,North,5,0.0,1.0,79,0.00,,,0.00,WeatherCatV1.21B27,2013-10-05 02:32:00,
2013-10-04 22:37:00,78.5,71.4,30.04,North,5,0.0,0.0,79,0.00,,,0.00,WeatherCatV1.21B27,2013-10-05 02:37:00,
2013-10-04 22:42:00,78.4,71.7,30.04,North,5,0.0,1.0,80,0.00,,,0.00,WeatherCatV1.21B27,2013-10-05 02:42:00,
2013-10-04 22:47:00,78.4,72.1,30.04,ENE,68,0.0,1.0,81,0.00,,,0.00,WeatherCatV1.21B27,2013-10-05 02:47:00,
2013-10-04 22:52:00,78.5,72.2,30.05,ENE,66,2.0,3.0,81,0.00,,,0.00,WeatherCatV1.21B27,2013-10-05 02:52:00,
2013-10-04 22:57:00,78.8,72.5,30.05,North,11,0.0,2.0,81,0.00,,,0.00,WeatherCatV1.21B27,2013-10-05 02:57:00,
2013-10-04 23:02:00,78.9,72.9,30.05,NE,36,0.0,1.0,82,0.00,,,0.00,WeatherCatV1.21B27,2013-10-05 03:02:00,
2013-10-04 23:07:00,79.1,72.8,30.05,NNE,32,1.0,1.0,81,0.00,,,0.00,WeatherCatV1.21B27,2013-10-05 03:07:00,
2013-10-04 23:12:00,79.3,72.6,30.05,NE,46,0.0,1.0,80,0.00,,,0.00,WeatherCatV1.21B27,2013-10-05 03:12:00,
2013-10-04 23:17:00,79.3,72.2,30.05,ENE,65,2.0,3.0,79,0.00,,,0.00,WeatherCatV1.21B27,2013-10-05 03:17:00,
2013-10-04 23:22:00,79.4,71.9,30.05,East,82,0.0,1.0,78,0.00,,,0.00,WeatherCatV1.21B27,2013-10-05 03:22:00,
2013-10-04 23:27:00,79.4,71.5,30.05,ESE,109,1.0,3.0,77,0.00,,,0.00,WeatherCatV1.21B27,2013-10-05 03:27:00,
2013-10-04 23:32:00,79.5,71.2,30.05,East,94,0.0,2.0,76,0.00,,,0.00,WeatherCatV1.21B27,2013-10-05 03:32:00,
2013-10-04 23:37:00,79.5,71.2,30.05,East,92,1.0,3.0,76,0.00,,,0.00,WeatherCatV1.21B27,2013-10-05 03:37:00,
2013-10-04 23:42:00,79.4,71.2,30.05,East,98,0.0,1.0,76,0.00,,,0.00,WeatherCatV1.21B27,2013-10-05 03:42:00,
2013-10-04 23:47:00,79.3,71.1,30.05,East,81,0.0,4.0,76,0.00,,,0.00,WeatherCatV1.21B27,2013-10-05 03:47:00,
2013-10-04 23:52:00,79.3,71.1,30.05,ENE,75,0.0,1.0,76,0.00,,,0.00,WeatherCatV1.21B27,2013-10-05 03:52:00,
2013-10-04 23:57:00,79.1,70.9,30.05,ENE,73,1.0,2.0,76,0.00,,,0.00,WeatherCatV1.21B27,2013-10-05 03:57:00,